Location: Normandy Village
(37.8755°N, 122.2655°W)
Time: 00:33:33
(UTC+00:00)

OAO 3 Rocket - Pass Details

Date: 22 September 2019
Orbit: 629 x 683 km, 35.0° (Epoch: 14 October)

Event Time Altitude Azimuth Distance (km) Brightness Sun altitude
Exits shadow 13:06:12 14° 245° (WSW) 1,765 4.8 -10.8°
Maximum altitude 13:10:06 54° 171° (S) 762 3.5 -10.0°
Drops below altitude 10° 13:14:37 10° 94° (E) 1,998 7.2 -9.1°
Sets 13:17:00 0° 90° (E) 2,909 8.8 -8.7°
